Weather History for Cedar Rapids, IA

Change the Weather History Date:

Tuesday, April 1, 2014

  Actual Average Record
Temperature  
Mean Temperature 34 °F 44 °F  
Max Temperature 44 °F 55 °F 86 °F (2003)
Min Temperature 24 °F 32 °F 14 °F (1926)
Degree Days  
Heating Degree Days 31 22  
Month to date heating degree days 31 22  
Since 1 July heating degree days 7140 6186  
Cooling Degree Days 0 0  
Month to date cooling degree days 0 0  
Year to date cooling degree days 0 0  
Moisture  
Dew Point 21 °F    
Average Humidity 62    
Maximum Humidity 78    
Minimum Humidity 45    
Precipitation  
Precipitation 0.00 in 0.08 in 1.25 in (1956)
Month to date precipitation 0.00 0.08  
Year to date precipitation 2.14 4.32  
Sea Level Pressure  
Sea Level Pressure 29.93 in    
Wind  
Wind Speed 18 mph (West)    
Max Wind Speed 33 mph    
Max Gust Speed 43 mph    
Visibility 10 miles    
Events      
T = Trace of Precipitation, MM = Missing Value Source: NWS Daily Summary

Daily Weather History Graph

Daily Weather History Graph

Search for Another Location

Airport:

Trip Planner

Search our weather history database for the weather conditions in past years. The results will help you decide how hot, cold, wet, or windy it might be!

Date:

Astronomy

Apr. 01, 2014 Rise Set
Actual Time 6:49 AM CDT 7:32 PM CDT
Civil Twilight 6:21 AM CDT 8:00 PM CDT
Nautical Twilight 5:48 AM CDT 8:33 PM CDT
Astronomical Twilight 5:13 AM CDT 9:08 PM CDT
Moon 7:50 AM CDT 9:57 PM CDT
Length of Visible Light 13h 39m
Length of Day
12h 42m
Waxing Crescent, 5% of the Moon is Illuminated
Apr 1
Waxing Crescent
Apr 7
First Quarter
Apr 15
Full
Apr 22
Last Quarter
Apr 29
New

Hourly Weather History & Observations

Time (CDT) Temp. Windchill Dew Point Humidity Pressure Visibility Wind Dir Wind Speed Gust Speed Precip Events Conditions
12:52 AM 30.9 °F 20.7 °F 24.1 °F 76% 29.76 in 10.0 mi WSW 13.8 mph - N/A   Overcast
1:01 AM 30.9 °F 19.1 °F 24.1 °F 76% 29.75 in 10.0 mi West 18.4 mph - N/A   Overcast
1:24 AM 30.9 °F 18.7 °F 21.0 °F 67% 29.76 in 10.0 mi WSW 19.6 mph - N/A   Overcast
1:52 AM 30.0 °F 17.9 °F 19.9 °F 66% 29.78 in 10.0 mi WSW 18.4 mph 33.4 mph N/A   Overcast
2:32 AM 28.9 °F 14.0 °F 19.0 °F 67% 29.77 in 10.0 mi West 27.6 mph 36.8 mph N/A   Overcast
2:48 AM 28.4 °F 13.0 °F 17.6 °F 64% 29.76 in 10.0 mi West 28.8 mph 38.0 mph N/A   Overcast
2:52 AM 27.0 °F 10.8 °F 17.1 °F 66% 29.78 in 10.0 mi West 29.9 mph 38.0 mph N/A   Overcast
3:52 AM 26.1 °F 11.0 °F 16.0 °F 66% 29.78 in 10.0 mi West 24.2 mph 34.5 mph N/A   Overcast
4:52 AM 25.0 °F 9.9 °F 15.1 °F 66% 29.81 in 10.0 mi West 23.0 mph 33.4 mph N/A   Overcast
5:52 AM 24.1 °F 8.0 °F 14.0 °F 65% 29.84 in 10.0 mi West 25.3 mph 33.4 mph N/A   Overcast
6:52 AM 24.1 °F 8.7 °F 14.0 °F 65% 29.87 in 10.0 mi West 23.0 mph 32.2 mph N/A   Overcast
7:52 AM 24.1 °F 8.7 °F 15.1 °F 69% 29.91 in 10.0 mi West 23.0 mph 31.1 mph N/A   Overcast
8:52 AM 25.0 °F 8.6 °F 14.0 °F 63% 29.93 in 10.0 mi West 27.6 mph 34.5 mph N/A   Overcast
9:52 AM 27.0 °F 11.3 °F 15.1 °F 61% 29.95 in 10.0 mi WNW 27.6 mph 35.7 mph N/A   Overcast
10:24 AM 30.0 °F 16.9 °F 17.1 °F 59% 29.95 in 10.0 mi WNW 21.9 mph 31.1 mph N/A   Scattered Clouds
10:52 AM 32.0 °F 18.6 °F 18.0 °F 56% 29.98 in 10.0 mi WNW 25.3 mph 31.1 mph N/A   Partly Cloudy
11:52 AM 36.0 °F 24.2 °F 19.9 °F 52% 29.99 in 10.0 mi WNW 24.2 mph 32.2 mph N/A   Clear
12:52 PM 41.0 °F 31.1 °F 21.9 °F 47% 30.01 in 10.0 mi WNW 23.0 mph 31.1 mph N/A   Clear
1:52 PM 44.1 °F 35.9 °F 24.1 °F 45% 30.01 in 10.0 mi WNW 19.6 mph - N/A   Clear
2:52 PM 44.1 °F 36.5 °F 25.0 °F 47% 30.01 in 10.0 mi WNW 17.3 mph 25.3 mph N/A   Clear
3:52 PM 44.1 °F 36.2 °F 26.1 °F 49% 30.03 in 10.0 mi West 18.4 mph - N/A   Clear
4:52 PM 43.0 °F 35.7 °F 27.0 °F 53% 30.04 in 10.0 mi WNW 15.0 mph - N/A   Overcast
5:52 PM 42.1 °F 36.1 °F 27.0 °F 55% 30.05 in 10.0 mi WNW 10.4 mph - N/A   Overcast
6:52 PM 41.0 °F 34.7 °F 27.0 °F 57% 30.06 in 10.0 mi WNW 10.4 mph - N/A   Overcast
7:52 PM 39.0 °F 33.4 °F 28.0 °F 65% 30.09 in 10.0 mi West 8.1 mph - N/A   Overcast
8:52 PM 39.0 °F 34.8 °F 28.0 °F 65% 30.11 in 10.0 mi West 5.8 mph - N/A   Overcast
9:52 PM 39.9 °F 32.5 °F 28.0 °F 63% 30.08 in 10.0 mi NNW 12.7 mph - N/A   Overcast
10:52 PM 36.0 °F 31.1 °F 28.0 °F 73% 30.11 in 10.0 mi SW 5.8 mph - N/A   Mostly Cloudy
11:52 PM 35.1 °F 30.1 °F 28.0 °F 76% 30.10 in 10.0 mi West 5.8 mph - N/A   Partly Cloudy